Location: Bacharowice
(49.9333°N, 19.5833°E)
Time: 03:55:20
(UTC+00:00)

Ariane Rocket - Pass Details

Date: 11 May 2021
Orbit: 760 x 769 km, 98.7° (Epoch: 22 June)

Event Time Altitude Azimuth Distance (km) Brightness Sun altitude
Rises 19:11:07 0° 179° (S) 3,211 5.8 -8.1°
Reaches altitude 10° 19:13:29 10° 185° (S) 2,290 5.1 -8.4°
Maximum altitude 19:18:22 49° 260° (W) 980 3.9 -9.0°
Drops below altitude 10° 19:23:18 10° 336° (NNW) 2,312 6.7 -9.6°
Sets 19:25:42 0° 341° (NNW) 3,244 7.5 -9.8°
